PALISADE

Satellite information

Favourite Embed

Satellite Type and Status

PAYLOADIN ORBIT

Key statistics

Satellite PALISADE at a glance.

Uptime

2090

Days in orbit

Revolutions

≈ 13.1

Per day

Orbit

LEO

Low Earth Orbit

Inclination

87.9

Latest

Satellite identification and parameters

Extended collection of information and parameters for PALISADE.

Object identification

Identified? True

Debris? False

Object name: PALISADE

International designator: 2019-069A

Object number (NORAD): 44634

Object ID (CCSDS): 44634

Country: UNITED STATES OF AMERICA (US)

Current information (Y/N): Y

RCS size: MEDIUM

Orbital parameters

Period: 109.765 minutes

Inclination: 87.8952 deg

SMA: 7593.982 km

Apoapsis: 1221.561 km

Periapsis: 1210.133 km

RAAN: 348.5536 deg

Eccentricy: 0.0007524

Argument of periapsis: 276.1562 deg

Mean anomaly: 83.8709 deg

Mean motion: 13.11893031 rev/day

Mean motion (dot): -0.00000447 rev/day2

B* drag term: -0.0012874 1/REarth

Two-line elements (TLE)

Creation date: July 6, 2025, 6:05 p.m.

Reference frame: TEME

Reference center: EARTH

Epoch: July 6, 2025, 9:36 a.m. UTC

TLE line 0: 0 PALISADE

TLE line 1: 1 44634U 19069A 25187.40024881 -.00000447 00000-0 -12874-2 0 9997

TLE line 2: 2 44634 87.8952 348.5536 0007524 276.1562 83.8709 13.11893031273774

Live tracking on map

Real-time ground track for satellite PALISADE.

In-orbit conjunctions

There are no conjunctions computed for PALISADE, at the moment. Check back to stay up to date, as we update our databases every day.

Go to all conjunctions

Associated space launch

Encapsulated in Electron's fairing will be a single spacecraft for Astro Digital, a California-based satellite manufacturer and operator. The Landmapper-BC remote sensing satellite features a broad coverage multispectral imaging system with a resolution of 22 meters per pixel. Eventually, Astro Digital plans to extend the Landmapper-BC constellation to capture daily, multispectral imagery of the world’s arable land. The mission is named 'As The Crow Flies' in a nod to Astro Digital's Corvus Platform, which provides flexible and cost-effective solutions across a wide range of applications and mission profiles on bus variants ranging from 6U and 16U CubeSats to ESPA Class. Corvus is also a widely-distributed genus of birds which includes crows.

PALISADE was lifted into orbit during the mission ‘Electron | As The Crow Flies (Palisade)’, on board a Electron space rocket.

The launch took place on Oct. 17, 2019, 1:22 a.m. from Rocket Lab Launch Complex 1A.

For more information about the launch, click the button.

Launch to space Electron | As The Crow Flies (Palisade)
Electron | As The Crow Flies (Palisade)

Agency: N/A

Status: Launch Successful

Launch date: Oct. 17, 2019, 1:22 a.m. UTC

Rocket: Electron

Launch pad: Rocket Lab Launch Complex 1A

Location: Rocket Lab Launch Complex 1, Mahia Peninsula, New Zealand

...

Latest news about this satellite

News about space launch
Rocket Lab launches Electron Flight 9 as work on new U.S. pad continues

News about space launch
Rocket Lab delivers on dedicated launch for Astro Digital

News about space launch
Rocket Lab preps for commercial satellite launch this week


Newsletter sign-up

Weekly statistics, charts and insights to help you stay on top of the space industry.